Time,TemperatureF,DewpointF,PressureIn,WindDirection,WindDirectionDegrees,WindSpeedMPH,WindSpeedGustMPH,Humidity,HourlyPrecipIn,Conditions,Clouds,dailyrainin,SolarRadiationWatts/m^2,SoftwareType,DateUTC
2013-03-25 00:02:00,24.0,16.0,-100.00,South,181,4.0,4.0,71,-99.99,,,-99.99,0.100000,,2013-03-25 06:02:00,
2013-03-25 00:12:00,25.0,14.0,-100.00,SSW,200,6.0,6.0,65,-99.99,,,-99.99,0.120000,,2013-03-25 06:12:00,
2013-03-25 00:22:00,23.0,15.0,-100.00,SE,130,4.0,4.0,69,-99.99,,,-99.99,0.080000,,2013-03-25 06:22:00,
2013-03-25 00:32:00,23.0,15.0,-100.00,SE,142,3.0,4.0,70,-99.99,,,-99.99,0.030000,,2013-03-25 06:32:00,
2013-03-25 00:42:00,24.0,15.0,-100.00,South,184,5.0,5.0,69,-99.99,,,-99.99,0.030000,,2013-03-25 06:42:00,
2013-03-25 00:52:00,22.0,14.0,-100.00,SE,137,3.0,4.0,68,-99.99,,,-99.99,0.020000,,2013-03-25 06:52:00,
2013-03-25 01:01:00,22.0,15.0,-100.00,South,170,3.0,5.0,73,-99.99,,,-99.99,0.030000,,2013-03-25 07:01:00,
2013-03-25 01:12:00,22.0,15.0,-100.00,South,170,3.0,5.0,73,-99.99,,,-99.99,0.030000,,2013-03-25 07:12:00,
2013-03-25 01:21:00,22.0,14.0,-100.00,South,175,4.0,4.0,71,-99.99,,,-99.99,0.010000,,2013-03-25 07:21:00,
2013-03-25 01:31:00,22.0,15.0,-100.00,South,177,3.0,3.0,75,-99.99,,,-99.99,0.000000,,2013-03-25 07:31:00,
2013-03-25 01:42:00,21.0,13.0,-100.00,SSW,198,6.0,8.0,71,-99.99,,,-99.99,0.010000,,2013-03-25 07:42:00,
2013-03-25 01:52:00,20.0,14.0,-100.00,SSE,155,3.0,4.0,74,-99.99,,,-99.99,0.030000,,2013-03-25 07:52:00,
2013-03-25 02:02:00,21.0,13.0,-100.00,SSW,192,4.0,4.0,72,-99.99,,,-99.99,0.040000,,2013-03-25 08:02:00,
2013-03-25 02:11:00,20.0,13.0,-100.00,SSE,162,4.0,7.0,72,-99.99,,,-99.99,0.000000,,2013-03-25 08:11:00,
2013-03-25 02:22:00,20.0,14.0,-100.00,South,182,5.0,5.0,76,-99.99,,,-99.99,0.000000,,2013-03-25 08:22:00,
2013-03-25 02:32:00,20.0,14.0,-100.00,South,184,4.0,5.0,75,-99.99,,,-99.99,0.000000,,2013-03-25 08:32:00,
2013-03-25 02:42:00,19.0,13.0,-100.00,SSE,167,2.0,4.0,75,-99.99,,,-99.99,0.010000,,2013-03-25 08:42:00,
2013-03-25 02:52:00,19.0,13.0,-100.00,South,180,2.0,3.0,76,-99.99,,,-99.99,0.010000,,2013-03-25 08:52:00,
2013-03-25 03:02:00,20.0,14.0,-100.00,SSE,152,3.0,3.0,77,-99.99,,,-99.99,0.010000,,2013-03-25 09:02:00,
2013-03-25 03:11:00,19.0,13.0,-100.00,ESE,113,2.0,3.0,77,-99.99,,,-99.99,0.000000,,2013-03-25 09:11:00,
2013-03-25 03:22:00,19.0,13.0,-100.00,ESE,113,2.0,3.0,77,-99.99,,,-99.99,0.000000,,2013-03-25 09:22:00,
2013-03-25 03:32:00,19.0,14.0,-100.00,SE,136,3.0,3.0,78,-99.99,,,-99.99,0.000000,,2013-03-25 09:32:00,
2013-03-25 03:42:00,19.0,13.0,-100.00,SE,142,5.0,5.0,77,-99.99,,,-99.99,0.000000,,2013-03-25 09:42:00,
2013-03-25 03:52:00,19.0,14.0,-100.00,SE,140,2.0,5.0,78,-99.99,,,-99.99,0.000000,,2013-03-25 09:52:00,
2013-03-25 04:02:00,19.0,14.0,-100.00,South,170,3.0,4.0,81,-99.99,,,-99.99,0.000000,,2013-03-25 10:02:00,
2013-03-25 04:12:00,19.0,14.0,-100.00,SSE,168,2.0,3.0,81,-99.99,,,-99.99,0.000000,,2013-03-25 10:12:00,
2013-03-25 04:22:00,19.0,14.0,-100.00,SSW,210,1.0,2.0,81,-99.99,,,-99.99,0.000000,,2013-03-25 10:22:00,
2013-03-25 04:32:00,19.0,13.0,-100.00,SW,225,2.0,5.0,78,-99.99,,,-99.99,0.000000,,2013-03-25 10:32:00,
2013-03-25 04:42:00,18.0,13.0,-100.00,ESE,108,3.0,3.0,79,-99.99,,,-99.99,0.000000,,2013-03-25 10:42:00,
2013-03-25 04:52:00,19.0,14.0,-100.00,West,272,1.0,2.0,79,-99.99,,,-99.99,0.000000,,2013-03-25 10:52:00,
2013-03-25 05:02:00,19.0,14.0,-100.00,West,272,1.0,2.0,79,-99.99,,,-99.99,0.000000,,2013-03-25 11:02:00,
2013-03-25 05:12:00,19.0,14.0,-100.00,NW,324,3.0,3.0,81,-99.99,,,-99.99,0.000000,,2013-03-25 11:12:00,
2013-03-25 05:23:00,19.0,14.0,-100.00,NW,324,3.0,3.0,81,-99.99,,,-99.99,0.000000,,2013-03-25 11:23:00,
2013-03-25 05:31:00,19.0,15.0,-100.00,NW,305,1.0,2.0,83,-99.99,,,-99.99,0.000000,,2013-03-25 11:31:00,
2013-03-25 05:42:00,19.0,15.0,-100.00,SSE,158,1.0,1.0,84,-99.99,,,-99.99,0.000000,,2013-03-25 11:42:00,
2013-03-25 05:51:00,18.0,15.0,-100.00,SSW,192,1.0,2.0,84,-99.99,,,-99.99,0.010000,,2013-03-25 11:51:00,
2013-03-25 06:02:00,19.0,15.0,-100.00,ESE,117,1.0,2.0,84,-99.99,,,-99.99,0.000000,,2013-03-25 12:02:00,
2013-03-25 06:12:00,18.0,15.0,-100.00,North,354,1.0,2.0,84,-99.99,,,-99.99,0.000000,,2013-03-25 12:12:00,
2013-03-25 06:22:00,20.0,16.0,-100.00,WNW,287,1.0,2.0,84,-99.99,,,-99.99,0.000000,,2013-03-25 12:22:00,
2013-03-25 06:32:00,20.0,16.0,-100.00,NW,313,1.0,2.0,85,-99.99,,,-99.99,0.000000,,2013-03-25 12:32:00,
2013-03-25 06:42:00,18.0,15.0,-100.00,NNE,26,0.0,2.0,85,-99.99,,,-99.99,0.000000,,2013-03-25 12:42:00,
2013-03-25 06:52:00,18.0,15.0,-100.00,South,183,0.0,2.0,86,-99.99,,,-99.99,0.010000,,2013-03-25 12:52:00,
2013-03-25 07:12:00,17.0,14.0,-100.00,ESE,104,2.0,2.0,85,-99.99,,,-99.99,0.000000,,2013-03-25 13:12:00,
2013-03-25 07:22:00,17.0,14.0,-100.00,ESE,104,2.0,2.0,85,-99.99,,,-99.99,0.000000,,2013-03-25 13:22:00,
2013-03-25 07:32:00,18.0,15.0,-100.00,South,191,2.0,3.0,87,-99.99,,,-99.99,0.010000,,2013-03-25 13:32:00,
2013-03-25 07:42:00,17.0,14.0,-100.00,SSW,202,1.0,3.0,85,-99.99,,,-99.99,0.380000,,2013-03-25 13:42:00,
2013-03-25 07:52:00,16.0,13.0,-100.00,ENE,73,2.0,4.0,85,-99.99,,,-99.99,2.210000,,2013-03-25 13:52:00,
2013-03-25 08:02:00,18.0,14.0,-100.00,WNW,290,2.0,3.0,85,-99.99,,,-99.99,7.920000,,2013-03-25 14:02:00,
2013-03-25 08:12:00,18.0,15.0,-100.00,SE,144,1.0,2.0,86,-99.99,,,-99.99,16.910000,,2013-03-25 14:12:00,
2013-03-25 08:22:00,18.0,15.0,-100.00,South,191,0.0,2.0,87,-99.99,,,-99.99,29.570000,,2013-03-25 14:22:00,
2013-03-25 08:32:00,19.0,15.0,-100.00,South,187,3.0,4.0,85,-99.99,,,-99.99,108.599998,,2013-03-25 14:32:00,
2013-03-25 08:42:00,20.0,16.0,-100.00,SSE,149,3.0,4.0,83,-99.99,,,-99.99,94.500000,,2013-03-25 14:42:00,
2013-03-25 08:52:00,22.0,17.0,-100.00,South,175,2.0,5.0,81,-99.99,,,-99.99,184.399994,,2013-03-25 14:52:00,
2013-03-25 09:02:00,24.0,18.0,-100.00,SSE,164,2.0,2.0,79,-99.99,,,-99.99,216.699997,,2013-03-25 15:02:00,
2013-03-25 09:12:00,26.0,18.0,-100.00,East,87,1.0,2.0,71,-99.99,,,-99.99,206.500000,,2013-03-25 15:12:00,
2013-03-25 09:22:00,26.0,18.0,-100.00,ESE,103,0.0,2.0,71,-99.99,,,-99.99,163.800003,,2013-03-25 15:22:00,
2013-03-25 09:32:00,25.0,17.0,-100.00,North,354,3.0,4.0,72,-99.99,,,-99.99,140.500000,,2013-03-25 15:32:00,
2013-03-25 09:42:00,27.0,18.0,-100.00,NNW,328,2.0,5.0,69,-99.99,,,-99.99,331.600006,,2013-03-25 15:42:00,
2013-03-25 09:52:00,27.0,19.0,-100.00,NE,35,2.0,3.0,71,-99.99,,,-99.99,185.500000,,2013-03-25 15:52:00,
2013-03-25 10:02:00,29.0,20.0,-100.00,ESE,123,1.0,2.0,69,-99.99,,,-99.99,354.100006,,2013-03-25 16:02:00,
2013-03-25 10:12:00,29.0,20.0,-100.00,ESE,123,1.0,2.0,69,-99.99,,,-99.99,354.100006,,2013-03-25 16:12:00,
2013-03-25 10:22:00,32.0,19.0,-100.00,NNE,24,3.0,4.0,58,-99.99,,,-99.99,458.600006,,2013-03-25 16:22:00,
2013-03-25 10:32:00,31.0,17.0,-100.00,NNW,336,3.0,4.0,55,-99.99,,,-99.99,513.200012,,2013-03-25 16:32:00,
2013-03-25 10:42:00,33.0,16.0,-100.00,NNW,348,4.0,5.0,50,-99.99,,,-99.99,544.700012,,2013-03-25 16:42:00,
2013-03-25 10:52:00,35.0,19.0,-100.00,WSW,242,1.0,3.0,52,-99.99,,,-99.99,578.599976,,2013-03-25 16:52:00,
2013-03-25 11:02:00,35.0,18.0,-100.00,NNE,33,2.0,5.0,49,-99.99,,,-99.99,602.400024,,2013-03-25 17:02:00,
2013-03-25 11:12:00,36.0,17.0,-100.00,NW,317,1.0,4.0,45,-99.99,,,-99.99,629.400024,,2013-03-25 17:12:00,
2013-03-25 11:22:00,39.0,17.0,-100.00,West,273,4.0,4.0,39,-99.99,,,-99.99,657.599976,,2013-03-25 17:22:00,
2013-03-25 11:32:00,39.0,16.0,-100.00,West,279,4.0,6.0,37,-99.99,,,-99.99,668.400024,,2013-03-25 17:32:00,
2013-03-25 11:42:00,40.0,15.0,-100.00,NW,312,1.0,2.0,35,-99.99,,,-99.99,696.799988,,2013-03-25 17:42:00,
2013-03-25 11:52:00,40.0,13.0,-100.00,ENE,70,6.0,7.0,32,-99.99,,,-99.99,735.099976,,2013-03-25 17:52:00,
2013-03-25 12:03:00,42.0,14.0,-100.00,ESE,106,5.0,8.0,31,-99.99,,,-99.99,761.500000,,2013-03-25 18:03:00,
2013-03-25 12:12:00,44.0,15.0,-100.00,ESE,113,6.0,9.0,30,-99.99,,,-99.99,780.799988,,2013-03-25 18:12:00,
2013-03-25 12:32:00,46.0,15.0,-100.00,ESE,111,6.0,8.0,28,-99.99,,,-99.99,763.299988,,2013-03-25 18:32:00,
2013-03-25 12:42:00,46.0,14.0,-100.00,ENE,78,7.0,8.0,27,-99.99,,,-99.99,674.200012,,2013-03-25 18:42:00,
2013-03-25 12:52:00,47.0,13.0,-100.00,ESE,117,6.0,8.0,24,-99.99,,,-99.99,793.700012,,2013-03-25 18:52:00,
2013-03-25 13:02:00,49.0,13.0,-100.00,ESE,107,3.0,9.0,23,-99.99,,,-99.99,796.599976,,2013-03-25 19:02:00,
2013-03-25 13:12:00,48.0,13.0,-100.00,East,96,5.0,10.0,23,-99.99,,,-99.99,810.000000,,2013-03-25 19:12:00,
2013-03-25 13:22:00,49.0,14.0,-100.00,SE,127,6.0,9.0,23,-99.99,,,-99.99,903.000000,,2013-03-25 19:22:00,
2013-03-25 13:32:00,50.0,10.0,-100.00,SE,124,8.0,11.0,20,-99.99,,,-99.99,756.000000,,2013-03-25 19:32:00,
2013-03-25 13:42:00,50.0,10.0,-100.00,ESE,108,7.0,11.0,19,-99.99,,,-99.99,891.000000,,2013-03-25 19:42:00,
2013-03-25 13:52:00,51.0,11.0,-100.00,East,101,4.0,8.0,19,-99.99,,,-99.99,854.000000,,2013-03-25 19:52:00,
2013-03-25 14:01:00,50.0,10.0,-100.00,East,80,6.0,11.0,19,-99.99,,,-99.99,841.000000,,2013-03-25 20:01:00,
2013-03-25 14:12:00,51.0,14.0,-100.00,SE,138,7.0,10.0,21,-99.99,,,-99.99,842.000000,,2013-03-25 20:12:00,
2013-03-25 14:22:00,53.0,12.0,-100.00,WSW,256,2.0,11.0,18,-99.99,,,-99.99,870.000000,,2013-03-25 20:22:00,
2013-03-25 14:32:00,53.0,15.0,-100.00,SE,139,6.0,9.0,21,-99.99,,,-99.99,872.000000,,2013-03-25 20:32:00,
2013-03-25 14:42:00,51.0,14.0,-100.00,WNW,289,3.0,5.0,21,-99.99,,,-99.99,861.000000,,2013-03-25 20:42:00,
2013-03-25 14:52:00,52.0,15.0,-100.00,SSE,148,3.0,7.0,23,-99.99,,,-99.99,814.000000,,2013-03-25 20:52:00,
2013-03-25 15:02:00,53.0,14.0,-100.00,WSW,241,1.0,5.0,20,-99.99,,,-99.99,848.000000,,2013-03-25 21:02:00,
2013-03-25 15:12:00,53.0,14.0,-100.00,North,3,3.0,7.0,21,-99.99,,,-99.99,842.000000,,2013-03-25 21:12:00,
2013-03-25 15:22:00,53.0,15.0,-100.00,NW,306,7.0,10.0,21,-99.99,,,-99.99,777.500000,,2013-03-25 21:22:00,
2013-03-25 15:32:00,54.0,15.0,-100.00,WSW,244,1.0,5.0,20,-99.99,,,-99.99,708.200012,,2013-03-25 21:32:00,
2013-03-25 15:42:00,53.0,15.0,-100.00,NW,321,4.0,7.0,21,-99.99,,,-99.99,620.000000,,2013-03-25 21:42:00,
2013-03-25 15:52:00,53.0,15.0,-100.00,West,280,6.0,9.0,21,-99.99,,,-99.99,634.500000,,2013-03-25 21:52:00,
2013-03-25 16:03:00,54.0,15.0,-100.00,WNW,299,4.0,8.0,21,-99.99,,,-99.99,630.299988,,2013-03-25 22:03:00,
2013-03-25 16:12:00,53.0,15.0,-100.00,North,1,2.0,7.0,21,-99.99,,,-99.99,371.299988,,2013-03-25 22:12:00,
2013-03-25 16:22:00,52.0,14.0,-100.00,NNE,23,4.0,7.0,22,-99.99,,,-99.99,288.500000,,2013-03-25 22:22:00,
2013-03-25 16:32:00,52.0,15.0,-100.00,NNE,17,4.0,7.0,22,-99.99,,,-99.99,254.500000,,2013-03-25 22:32:00,
2013-03-25 16:42:00,52.0,15.0,-100.00,North,4,6.0,7.0,23,-99.99,,,-99.99,231.699997,,2013-03-25 22:42:00,
2013-03-25 16:52:00,52.0,15.0,-100.00,NNE,19,4.0,6.0,23,-99.99,,,-99.99,237.199997,,2013-03-25 22:52:00,
2013-03-25 17:02:00,52.0,16.0,-100.00,ENE,70,2.0,6.0,23,-99.99,,,-99.99,184.500000,,2013-03-25 23:02:00,
2013-03-25 17:12:00,53.0,15.0,-100.00,ENE,69,3.0,5.0,22,-99.99,,,-99.99,203.100006,,2013-03-25 23:12:00,
2013-03-25 17:22:00,53.0,15.0,-100.00,North,0,5.0,7.0,22,-99.99,,,-99.99,192.899994,,2013-03-25 23:22:00,
2013-03-25 17:32:00,53.0,15.0,-100.00,North,0,5.0,7.0,22,-99.99,,,-99.99,192.899994,,2013-03-25 23:32:00,
2013-03-25 17:42:00,52.0,17.0,-100.00,North,357,4.0,7.0,24,-99.99,,,-99.99,310.000000,,2013-03-25 23:42:00,
2013-03-25 17:52:00,52.0,16.0,-100.00,NNE,17,3.0,6.0,23,-99.99,,,-99.99,190.500000,,2013-03-25 23:52:00,
2013-03-25 18:02:00,52.0,17.0,-100.00,NE,50,2.0,4.0,24,-99.99,,,-99.99,143.699997,,2013-03-26 00:02:00,
2013-03-25 18:11:00,53.0,17.0,-100.00,NE,39,2.0,5.0,23,-99.99,,,-99.99,179.199997,,2013-03-26 00:11:00,
2013-03-25 18:22:00,53.0,17.0,-100.00,NNW,331,3.0,6.0,23,-99.99,,,-99.99,212.600006,,2013-03-26 00:22:00,
2013-03-25 18:32:00,53.0,17.0,-100.00,NNE,18,2.0,6.0,24,-99.99,,,-99.99,199.699997,,2013-03-26 00:32:00,
2013-03-25 18:42:00,53.0,17.0,-100.00,NNE,18,2.0,6.0,24,-99.99,,,-99.99,199.699997,,2013-03-26 00:42:00,
2013-03-25 18:52:00,52.0,16.0,-100.00,ENE,61,0.0,3.0,24,-99.99,,,-99.99,77.440002,,2013-03-26 00:52:00,
2013-03-25 19:02:00,53.0,17.0,-100.00,ESE,110,1.0,4.0,23,-99.99,,,-99.99,140.000000,,2013-03-26 01:02:00,
2013-03-25 19:12:00,53.0,17.0,-100.00,NE,47,3.0,4.0,22,-99.99,,,-99.99,178.600006,,2013-03-26 01:12:00,
2013-03-25 19:22:00,53.0,17.0,-100.00,NNE,17,1.0,4.0,23,-99.99,,,-99.99,128.399994,,2013-03-26 01:22:00,
2013-03-25 19:32:00,53.0,17.0,-100.00,NE,52,4.0,5.0,23,-99.99,,,-99.99,89.599998,,2013-03-26 01:32:00,
2013-03-25 19:42:00,52.0,17.0,-100.00,ENE,65,4.0,5.0,24,-99.99,,,-99.99,71.629997,,2013-03-26 01:42:00,
2013-03-25 19:52:00,52.0,18.0,-100.00,ENE,67,4.0,5.0,25,-99.99,,,-99.99,37.500000,,2013-03-26 01:52:00,
2013-03-25 20:02:00,48.0,21.0,-100.00,ESE,115,2.0,3.0,33,-99.99,,,-99.99,7.210000,,2013-03-26 02:02:00,
2013-03-25 20:11:00,48.0,21.0,-100.00,ESE,115,2.0,3.0,33,-99.99,,,-99.99,7.210000,,2013-03-26 02:11:00,
2013-03-25 20:22:00,47.0,21.0,-100.00,SSE,160,1.0,2.0,35,-99.99,,,-99.99,1.680000,,2013-03-26 02:22:00,
2013-03-25 20:31:00,45.0,22.0,-100.00,South,178,3.0,4.0,39,-99.99,,,-99.99,0.400000,,2013-03-26 02:31:00,
2013-03-25 20:42:00,45.0,20.0,-100.00,SSW,192,2.0,3.0,36,-99.99,,,-99.99,0.060000,,2013-03-26 02:42:00,
2013-03-25 20:52:00,40.0,22.0,-100.00,SSE,161,0.0,2.0,46,-99.99,,,-99.99,0.000000,,2013-03-26 02:52:00,
2013-03-25 21:02:00,40.0,23.0,-100.00,South,183,4.0,4.0,50,-99.99,,,-99.99,0.000000,,2013-03-26 03:02:00,
2013-03-25 21:22:00,39.0,22.0,-100.00,SE,137,5.0,5.0,49,-99.99,,,-99.99,0.000000,,2013-03-26 03:22:00,
2013-03-25 21:33:00,37.0,22.0,-100.00,SSE,162,4.0,5.0,53,-99.99,,,-99.99,0.000000,,2013-03-26 03:33:00,
2013-03-25 21:42:00,37.0,21.0,-100.00,SSE,149,5.0,5.0,51,-99.99,,,-99.99,0.000000,,2013-03-26 03:42:00,
2013-03-25 21:52:00,38.0,23.0,-100.00,SSE,163,4.0,5.0,55,-99.99,,,-99.99,0.000000,,2013-03-26 03:52:00,
2013-03-25 22:03:00,37.0,23.0,-100.00,SSW,195,4.0,5.0,55,-99.99,,,-99.99,0.000000,,2013-03-26 04:03:00,
2013-03-25 22:12:00,36.0,23.0,-100.00,ESE,123,3.0,4.0,58,-99.99,,,-99.99,0.000000,,2013-03-26 04:12:00,
2013-03-25 22:22:00,36.0,23.0,-100.00,South,169,3.0,4.0,57,-99.99,,,-99.99,0.000000,,2013-03-26 04:22:00,
2013-03-25 22:32:00,36.0,22.0,-100.00,SSE,148,1.0,2.0,57,-99.99,,,-99.99,0.000000,,2013-03-26 04:32:00,
2013-03-25 22:42:00,37.0,21.0,-100.00,WNW,291,0.0,2.0,53,-99.99,,,-99.99,0.000000,,2013-03-26 04:42:00,
2013-03-25 22:52:00,36.0,22.0,-100.00,North,0,0.0,2.0,56,-99.99,,,-99.99,0.000000,,2013-03-26 04:52:00,
2013-03-25 23:02:00,36.0,23.0,-100.00,South,174,1.0,3.0,58,-99.99,,,-99.99,0.000000,,2013-03-26 05:02:00,
2013-03-25 23:12:00,35.0,23.0,-100.00,SSE,164,0.0,2.0,61,-99.99,,,-99.99,0.000000,,2013-03-26 05:12:00,
2013-03-25 23:32:00,34.0,23.0,-100.00,South,184,5.0,5.0,63,-99.99,,,-99.99,0.000000,,2013-03-26 05:32:00,
2013-03-25 23:42:00,33.0,21.0,-100.00,SE,132,3.0,3.0,60,-99.99,,,-99.99,0.000000,,2013-03-26 05:42:00,
2013-03-25 23:52:00,33.0,22.0,-100.00,SSE,150,4.0,5.0,64,-99.99,,,-99.99,0.000000,,2013-03-26 05:52:00,